RH
4 5 6 7 8 8 7 7 7 7 8 8 7 6 4 3 3 3 4 4 4 4 4 5 5 5 5 5 5 4 4 4 3 2 2 4 6 9 11 12 13 18 20 23 28 33 38 42 43 42 46 50 54 56 54 58 63 65 67 63 66 74 78 85 90 89 87 85 83 81 81 81 82 74 59 54 50 43 33 24 21 16 11 10 9 8 7 6
3 3 4 4 6 7 8 8 8 7 7 8 9 8 7 5 4 3 3 3 4 4 4 4 5 5 5 5 5 5 5 5 4 3 3 2 4 6 9 11 12 16 19 21 25 29 34 37 36 37 43 50 56 60 58 59 63 67 67 62 65 73 77 82 85 84 83 82 80 80 82 86 85 75 63 59 56 46 35 27 24 18 11 8 8 8 7 7
3 3 3 3 4 4 5 7 8 8 8 8 9 10 9 8 6 4 3 3 3 4 4 4 4 5 5 5 5 5 5 5 5 4 3 2 3 4 7 9 11 14 16 18 19 21 25 28 27 30 38 49 58 63 68 63 61 68 66 61 63 68 74 79 81 79 78 79 80 79 79 81 80 74 70 65 54 40 32 30 27 21 13 7 7 8 7 6
4 3 3 3 3 3 3 4 5 7 9 9 9 10 11 11 9 7 5 3 3 3 4 4 4 4 4 5 5 5 5 5 5 5 4 4 3 3 5 7 9 11 13 15 17 18 22 27 28 30 35 47 58 64 75 70 61 67 64 60 63 65 70 76 83 82 76 79 81 79 76 74 71 69 71 66 49 34 27 28 29 26 18 9 5 7 7 6
4 3 3 3 3 3 3 3 3 4 6 9 10 11 11 12 12 10 8 5 4 3 3 4 4 4 4 4 5 5 5 5 5 5 5 4 3 3 4 6 8 9 12 14 18 21 23 27 29 33 37 47 57 61 74 74 63 66 63 61 63 61 66 71 81 83 78 81 78 76 77 70 67 69 73 71 55 35 26 25 27 27 22 13 6 6 7 6
5 4 3 3 3 3 3 2 3 3 4 6 9 12 12 12 13 13 11 8 6 4 3 4 4 4 4 4 4 4 5 5 5 5 5 5 4 3 3 4 6 8 11 13 17 22 24 26 26 33 41 47 53 58 70 73 65 68 66 64 66 62 65 70 76 79 78 81 76 77 78 67 68 73 75 76 62 41 30 24 23 25 23 16 8 5 7 6
5 4 4 3 3 3 3 3 2 2 3 3 6 10 13 14 13 14 15 12 9 6 5 4 4 4 4 4 4 4 4 5 5 5 5 5 5 4 3 3 5 7 9 12 17 22 24 27 29 33 42 42 47 60 71 71 66 73 74 73 74 68 66 69 74 78 77 77 77 78 76 70 73 73 69 71 64 48 34 22 21 25 23 17 9 6 7 7
5 4 4 4 3 3 3 3 3 2 2 3 4 6 11 13 14 14 15 17 13 9 6 5 5 4 4 4 4 4 4 4 4 5 5 5 5 5 4 3 4 5 7 11 15 21 23 28 31 32 40 38 38 57 69 68 65 73 83 83 81 76 70 70 75 83 80 75 76 77 77 75 76 74 71 71 68 56 37 21 20 23 23 18 11 7 7 7
5 4 4 4 4 3 3 3 3 3 2 2 3 4 6 9 13 15 15 18 18 14 9 7 6 5 5 5 5 5 4 5 4 5 5 5 5 5 5 4 3 4 6 10 13 19 23 27 31 31 39 36 33 49 61 66 64 68 88 93 85 80 74 72 79 87 84 77 75 76 79 78 77 79 79 77 74 64 42 25 20 20 22 21 15 10 7 6
5 5 4 4 4 4 3 3 3 3 3 3 3 3 4 5 9 14 16 17 20 20 15 9 8 6 6 5 5 6 5 5 4 5 5 5 5 5 6 5 4 4 5 9 13 18 22 24 28 28 32 30 30 42 51 68 73 70 85 91 84 80 74 74 82 88 84 81 80 78 80 80 78 78 78 74 74 69 51 33 23 18 18 20 17 13 9 7
6 5 5 4 4 4 3 4 3 3 3 3 3 3 3 4 6 12 17 18 19 23 22 15 10 8 7 6 6 6 6 6 5 5 5 4 5 5 5 5 4 4 4 8 12 17 19 20 22 24 26 26 29 36 45 69 82 75 79 83 84 87 83 77 81 89 85 81 80 76 77 81 81 78 74 71 71 70 61 44 31 20 16 17 18 15 11 8
5 5 4 4 4 4 3 4 3 3 4 4 4 4 3 3 5 9 15 19 18 21 25 23 15 10 9 8 6 7 7 7 6 6 5 4 5 5 5 6 5 4 4 6 10 14 15 16 19 22 23 24 28 31 38 61 78 78 79 81 87 93 90 80 79 90 87 80 76 67 72 84 85 78 72 71 72 73 67 55 43 29 20 16 16 18 15 9
5 4 4 4 3 3 3 3 4 4 4 5 6 5 5 4 4 7 12 18 20 19 24 28 23 15 10 9 8 8 7 7 7 6 6 5 4 5 5 5 6 6 4 4 8 11 12 14 18 22 23 23 25 25 29 49 68 77 82 82 86 89 88 82 81 88 84 79 75 65 74 88 83 75 71 70 72 75 69 61 53 40 29 21 16 18 19 12
5 4 3 3 2 2 2 2 3 4 5 6 7 7 7 6 5 5 10 17 20 20 21 28 30 23 15 12 11 9 8 8 8 7 7 6 5 4 5 5 6 6 6 4 5 8 11 13 16 20 22 21 22 21 25 41 54 68 80 82 84 85 85 84 84 87 85 80 78 73 77 84 78 71 70 69 70 74 72 65 59 49 39 29 20 17 19 17
5 4 3 2 2 2 2 2 3 4 5 6 7 9 8 8 7 5 8 14 20 21 21 25 32 29 22 16 13 11 10 9 9 9 7 7 6 5 5 5 6 6 6 5 4 6 10 13 14 17 19 18 20 20 24 34 40 55 76 83 83 82 82 85 86 87 88 84 82 80 78 78 74 70 68 65 64 68 74 72 66 58 50 39 29 21 18 19
4 3 2 2 2 2 1 2 3 4 6 6 7 10 10 10 10 7 8 14 19 21 22 26 32 33 27 21 16 13 12 11 10 10 8 8 7 6 5 5 5 6 6 6 5 5 7 11 13 15 16 16 18 21 23 27 30 44 68 81 83 80 79 83 88 92 91 85 80 80 80 76 73 70 66 63 59 61 69 76 74 68 60 49 39 28 19 19
3 2 2 2 1 2 1 1 2 5 7 8 7 9 11 11 11 9 9 15 20 21 22 28 34 36 32 25 20 16 13 12 12 11 9 8 7 7 6 5 5 5 6 6 6 5 5 8 11 13 14 15 17 21 25 25 26 33 54 78 86 83 81 81 87 94 93 88 80 75 75 74 70 66 64 62 60 59 62 69 75 74 68 60 51 39 26 19
2 2 1 2 2 1 2 1 2 4 8 11 11 10 11 13 13 11 11 17 22 22 23 28 34 37 36 30 23 18 16 14 13 12 11 10 8 8 7 6 6 5 5 6 7 6 5 5 7 10 12 13 15 19 24 25 26 28 40 68 86 87 86 84 86 93 95 90 82 74 70 69 68 66 63 61 61 63 61 63 71 75 72 68 62 53 40 27
2 2 1 2 2 2 2 2 1 3 7 13 16 14 12 14 15 12 12 20 26 25 26 30 35 38 37 34 28 22 18 16 14 13 12 11 9 8 8 7 6 5 5 5 7 7 7 5 5 7 8 11 13 16 23 26 28 29 30 50 78 87 87 87 89 96 98 91 82 78 74 70 67 64 62 59 57 60 62 63 68 76 79 75 70 64 55 41
1 1 2 2 2 2 2 2 2 2 6 13 20 20 18 18 17 13 13 21 28 29 29 33 37 40 39 36 32 26 20 17 15 13 12 12 11 9 8 8 7 6 5 5 7 8 8 7 5 6 6 7 11 14 20 26 29 31 27 34 60 81 89 91 92 96 98 93 85 81 77 72 67 62 60 60 59 57 57 57 59 70 82 78 72 67 63 53
2 1 2 2 2 2 2 2 2 2 4 10 19 24 24 24 23 18 17 23 29 30 31 34 38 41 41 38 34 30 24 19 16 14 13 12 11 10 9 8 8 7 6 5 7 8 9 9 7 6 6 6 8 11 16 23 28 32 31 28 42 68 87 92 93 96 97 92 87 82 77 74 69 62 62 63 62 57 51 50 49 57 69 67 64 62 62 62
2 2 2 2 2 2 2 2 2 3 3 5 15 25 28 29 28 23 21 27 32 32 33 35 37 39 41 39 36 32 27 22 18 15 14 12 11 10 9 8 8 7 7 6 6 7 7 10 9 7 6 5 6 8 12 19 25 31 34 31 34 53 78 92 95 97 98 91 85 82 76 74 69 63 64 66 64 60 52 48 45 50 55 53 53 56 63 69
2 2 2 2 2 2 2 3 3 3 3 4 12 22 28 32 32 27 24 29 33 32 34 36 36 38 40 39 36 33 29 24 20 17 14 13 11 11 9 8 8 8 8 7 6 7 7 8 11 10 8 6 5 6 8 13 20 28 34 34 33 40 60 84 92 92 97 93 85 83 78 75 71 65 67 68 64 63 59 53 49 49 50 46 46 54 61 64
2 2 2 2 2 3 3 3 3 4 4 4 9 18 27 33 34 30 28 31 32 31 32 35 36 37 38 37 36 34 30 26 23 19 16 14 12 11 10 9 8 8 8 8 7 8 7 7 10 11 10 8 6 6 6 9 13 21 29 33 34 35 41 64 79 82 93 96 87 85 83 78 74 70 69 66 60 61 62 59 55 51 49 47 50 59 62 59
2 2 2 2 2 3 3 3 4 4 4 4 7 14 23 32 32 29 28 30 31 29 28 32 34 34 34 35 34 32 30 28 25 21 18 16 14 12 11 9 8 8 8 8 8 8 8 8 8 9 10 9 7 6 5 6 9 13 21 28 33 35 33 45 61 70 85 96 90 87 88 85 78 74 72 66 60 60 60 59 56 50 49 50 53 58 63 66
2 2 3 2 3 3 3 4 4 4 4 4 6 10 20 30 29 24 24 25 26 27 25 26 27 27 29 30 32 31 29 28 26 24 20 17 16 13 12 10 9 8 7 7 8 8 8 9 8 7 8 8 8 8 6 5 7 8 14 21 28 34 33 35 45 56 68 78 80 82 85 87 83 78 77 70 63 62 60 58 55 51 52 52 52 55 59 66
2 2 3 3 3 3 3 5 5 4 5 5 7 9 17 29 27 19 18 17 19 24 24 22 21 24 26 26 28 30 27 27 27 25 23 20 17 15 13 12 10 9 8 7 7 8 9 9 8 7 6 7 7 9 9 7 6 6 8 14 21 29 34 34 34 41 47 52 62 68 70 80 85 80 79 74 65 65 64 59 57 58 59 55 53 58 62 64
3 3 3 3 3 3 4 6 5 4 5 5 7 9 14 25 25 18 15 13 16 22 22 20 21 23 24 23 24 27 25 25 26 25 24 22 19 17 15 13 12 10 8 8 7 7 8 8 8 8 7 7 6 8 9 9 8 7 6 8 12 19 28 33 32 33 36 38 48 53 50 66 83 79 75 70 61 61 62 58 60 65 68 64 59 62 69 72
3 3 3 3 3 4 5 6 6 5 5 6 7 9 12 18 20 18 16 14 19 24 21 19 21 21 22 21 21 24 24 23 24 24 24 22 20 18 16 14 13 11 10 9 8 7 7 7 7 8 7 7 7 7 7 9 10 9 7 5 7 10 14 23 28 28 31 34 39 42 37 49 71 73 63 54 50 56 61 58 59 63 66 69 70 71 74 79
3 3 3 3 4 5 6 7 6 6 6 6 7 9 10 12 17 20 19 19 24 26 23 21 21 20 22 22 21 21 21 22 22 22 21 21 20 19 17 15 14 13 11 10 9 8 7 7 6 7 7 7 7 7 6 7 10 10 9 7 6 6 6 11 18 21 26 31 33 36 31 34 53 57 46 41 45 55 60 60 61 62 61 63 71 76 78 81
4 4 4 4 5 6 7 6 5 5 6 6 7 8 8 11 18 22 21 25 29 28 25 22 21 22 22 22 22 19 17 19 20 20 20 19 18 18 17 16 15 14 13 11 10 9 8 7 7 6 7 7 7 8 7 7 9 9 9 9 8 8 6 6 8 11 16 23 29 33 29 28 39 42 33 34 44 52 58 63 66 66 64 61 62 63 67 74
5 5 4 4 5 6 7 6 5 5 5 6 6 6 9 14 22 26 26 30 33 32 28 25 23 23 23 23 23 20 16 17 18 19 19 19 18 17 17 16 15 14 13 13 12 11 9 8 8 7 7 7 6 7 7 7 8 8 8 9 10 10 9 7 6 7 7 12 19 27 28 25 31 35 30 31 40 47 57 67 69 68 66 62 60 57 53 56
6 6 5 5 6 6 7 7 6 5 5 5 5 6 13 23 29 29 30 34 36 35 33 29 27 26 26 25 24 21 17 16 17 18 18 18 18 17 16 16 15 15 14 14 13 12 11 10 9 9 7 7 7 6 6 7 8 9 7 7 9 10 10 9 7 6 5 6 10 17 22 20 23 31 31 31 38 45 56 67 70 70 67 63 66 68 60 53
8 7 5 5 5 6 7 7 6 6 5 5 6 9 19 34 40 36 34 40 42 40 39 37 32 30 31 29 26 23 20 18 17 17 16 17 17 16 16 15 14 15 14 14 13 13 12 12 11 10 9 8 8 7 6 6 6 8 8 7 8 9 11 11 9 8 6 6 6 10 16 15 14 23 30 33 38 45 56 67 71 72 72 72 75 74 70 65
11 10 7 5 5 5 6 7 8 6 6 7 8 14 25 38 47 45 42 46 49 47 46 46 43 41 40 36 32 28 25 23 21 18 17 17 16 16 16 15 14 14 14 14 13 13 12 12 12 11 11 9 9 8 7 6 6 7 7 8 8 8 9 11 12 12 10 8 7 9 12 11 10 15 25 35 41 46 55 63 69 73 77 82 82 77 73 72
12 13 10 7 6 5 5 8 8 8 9 8 8 20 34 41 47 51 49 52 57 58 56 55 53 53 51 46 42 38 34 32 28 25 22 20 19 18 17 17 16 14 14 14 14 13 12 12 12 12 11 11 10 9 8 7 6 6 6 7 8 8 8 10 12 14 13 11 8 9 10 10 9 10 16 29 38 44 52 59 67 74 79 84 84 80 76 74
11 15 14 10 10 8 6 7 8 10 14 14 14 26 42 48 51 53 53 55 63 67 66 65 62 59 58 54 49 47 44 41 38 34 32 29 26 24 21 20 19 17 15 14 14 15 13 12 12 12 12 11 11 10 9 8 7 7 6 6 7 7 8 10 11 13 15 14 11 10 10 9 9 9 10 18 27 40 55 61 68 76 78 80 82 81 79 76
8 15 17 16 15 13 10 9 9 11 18 26 28 31 47 62 63 59 57 58 65 72 75 77 74 70 69 66 61 57 54 51 48 45 42 39 36 32 28 25 23 21 18 16 15 14 14 14 13 12 12 11 11 10 10 10 8 7 7 6 6 7 7 9 10 11 13 14 13 11 10 9 8 7 9 12 16 35 61 70 71 77 77 75 78 80 80 79
5 12 18 20 20 18 17 16 14 13 20 31 36 36 50 69 74 72 71 69 72 77 81 85 84 82 81 79 76 72 67 62 59 55 51 46 42 39 35 33 30 27 24 20 17 15 15 15 14 13 12 11 11 11 11 11 9 8 8 7 6 6 6 7 9 10 11 13 13 12 11 10 8 7 9 12 11 26 57 74 74 78 77 72 74 77 79 81
5 11 19 23 26 26 26 25 23 22 22 29 36 37 44 57 66 77 85 85 86 87 87 90 88 86 87 84 82 81 77 74 69 64 60 54 49 45 41 37 35 33 31 26 22 20 17 16 15 14 13 12 12 12 11 11 10 10 9 8 7 7 6 7 8 10 10 11 13 13 13 11 9 7 7 10 11 16 37 57 66 76 78 70 68 72 77 82
6 12 19 25 30 32 33 33 32 31 28 28 32 34 36 41 47 59 69 74 80 81 81 85 84 84 86 85 83 82 82 82 77 71 65 58 53 50 45 41 37 35 33 31 28 25 21 19 17 15 14 13 13 12 12 11 11 11 10 9 8 7 7 7 7 9 9 10 12 13 13 11 9 8 7 7 10 12 20 32 48 70 78 69 63 67 74 81
7 10 16 25 31 33 35 36 35 35 33 31 33 36 38 38 39 42 45 48 54 58 60 65 69 73 78 80 81 81 79 81 81 77 71 62 55 51 47 44 39 35 33 32 31 27 24 21 19 17 15 14 13 12 11 12 11 11 11 10 9 9 8 7 8 8 8 10 12 13 15 14 11 9 8 7 8 10 15 21 38 66 78 70 63 64 70 79
8 8 12 18 26 31 36 39 37 35 34 32 32 34 37 39 40 41 38 35 37 41 47 51 54 59 66 72 77 77 71 69 73 75 73 67 59 51 47 43 40 37 34 32 32 28 25 22 20 19 17 14 14 12 11 11 11 11 11 11 10 10 9 9 8 8 10 12 13 14 16 15 12 10 8 8 7 8 11 16 31 60 79 76 65 61 66 76
9 8 8 9 15 24 31 35 37 37 37 36 33 30 31 33 34 33 30 27 26 29 36 43 45 47 53 61 69 72 65 59 61 63 63 64 61 52 46 42 39 38 35 33 33 30 28 26 22 19 18 15 14 13 12 11 10 11 11 10 11 11 9 10 10 8 11 12 14 18 18 13 12 12 9 7 7 8 9 11 20 46 74 82 71 61 61 70
10 9 8 6 9 16 19 23 30 33 33 35 34 33 31 30 28 27 26 25 23 22 25 29 32 33 36 40 48 57 58 56 58 56 51 53 55 50 45 40 37 37 35 33 32 30 30 31 27 22 20 17 15 14 13 13 12 11 12 11 11 11 10 11 11 11 12 14 18 21 18 13 14 14 12 9 6 6 8 8 10 26 56 80 77 60 51 56
10 10 10 8 7 10 11 13 19 21 23 27 30 31 33 31 30 29 27 26 25 24 23 23 23 23 24 24 26 31 36 39 43 46 43 42 45 46 44 38 34 33 33 31 29 27 27 29 28 25 23 20 18 17 15 15 14 13 14 14 13 14 13 12 13 14 14 17 22 20 13 14 17 15 15 14 8 5 7 8 8 11 29 57 72 64 48 41
10 10 11 10 8 8 9 9 11 12 15 19 22 24 28 29 29 29 29 29 28 27 25 24 23 22 22 21 21 21 22 23 24 27 30 32 36 40 40 37 33 30 29 28 27 25 23 23 24 24 22 20 20 21 19 17 16 16 17 18 17 16 16 15 15 15 17 23 26 20 12 15 21 17 15 15 12 7 6 6 8 8 11 26 43 51 44 35
9 10 11 11 10 9 9 8 9 9 10 11 12 14 16 18 19 21 22 23 25 25 25 26 25 24 24 22 21 21 20 20 20 20 21 23 26 29 31 32 32 30 28 26 25 24 22 21 20 19 19 18 18 20 20 19 18 18 19 21 20 19 19 19 17 16 20 27 28 22 15 15 22 22 18 17 16 11 7 6 7 7 8 11 17 25 28 29
9 10 11 12 12 11 10 9 9 9 9 9 9 10 10 10 11 11 12 13 14 16 18 20 22 23 25 24 23 22 20 19 19 18 18 19 19 20 21 22 24 25 24 23 22 21 21 21 21 20 19 18 16 17 17 17 16 17 18 20 20 21 21 21 20 18 21 25 26 24 20 18 23 27 24 23 24 17 10 6 6 7 7 8 9 13 16 20
8 9 10 11 12 12 12 12 11 10 11 11 10 11 12 12 12 11 11 10 11 10 10 12 13 15 18 20 21 22 21 20 19 17 17 16 16 16 17 17 18 18 18 18 18 17 16 16 17 18 18 19 18 17 16 15 14 14 14 15 16 18 20 21 21 19 20 23 25 26 23 18 23 32 33 31 31 27 19 10 6 6 6 6 6 9 11 12
9 9 10 10 11 13 13 13 13 12 12 12 12 13 13 14 14 14 13 13 14 14 12 11 10 10 10 11 12 14 16 17 18 17 17 16 15 15 14 14 15 15 15 15 15 15 15 14 14 14 14 15 16 17 17 16 16 14 13 12 12 13 15 18 20 20 20 22 25 27 23 15 17 28 35 36 36 34 30 20 10 5 6 7 6 6 8 9
10 9 10 10 10 12 12 13 15 14 15 14 14 14 14 14 15 16 15 15 15 15 16 15 15 14 13 11 10 9 10 10 11 12 13 14 15 15 15 14 13 13 13 13 13 13 13 13 13 13 13 13 12 13 14 15 15 15 14 13 12 12 12 13 15 16 18 20 23 25 22 14 12 17 23 32 40 40 36 31 21 10 5 7 7 6 6 8
Wind_Speed
19 19 20 22 22 23 23 23 23 23 23 22 22 22 22 23 24 24 24 24 23 23 22 22 21 19 18 17 17 17 18 18 20 21 22 21 21 22 22 20 18 17 17 16 16 16 16 15 14 14 13 12 12 11 10 9 8 8 6 5 7 8 8 8 8 11 13 16 17 14 12 11 10 10 10 9 9 9 8 8 9 10 11 12 8 6 9 13
19 20 20 21 22 23 24 24 24 24 25 25 24 23 23 23 24 24 24 24 24 25 24 24 23 22 20 19 18 17 17 18 19 20 21 21 22 22 22 21 20 19 20 19 19 19 18 18 17 16 15 14 13 13 12 11 10 9 8 6 7 8 8 7 8 9 10 14 16 13 12 11 9 8 9 9 9 9 9 8 9 9 10 12 11 8 10 13
19 19 20 21 22 23 24 25 25 25 26 26 26 26 25 24 24 24 24 25 25 25 25 25 25 24 23 22 20 19 18 18 19 19 20 21 23 24 23 21 21 22 22 21 21 20 19 19 18 17 17 16 14 14 13 12 11 10 10 8 8 9 8 7 7 7 8 13 14 12 12 12 10 9 8 8 9 10 10 9 9 9 8 11 12 11 11 14
20 20 20 20 21 22 23 25 26 26 27 27 27 27 27 27 26 25 25 25 25 25 26 26 26 25 24 24 23 22 20 20 19 19 19 20 23 24 24 23 23 23 22 21 19 18 18 18 17 17 17 16 16 14 13 13 13 11 10 10 9 9 9 8 6 5 7 11 13 11 13 13 12 11 9 8 8 9 9 10 10 8 8 8 11 12 11 14
22 21 21 20 20 21 22 24 25 27 28 28 28 29 29 29 28 27 26 25 25 25 26 26 27 27 26 25 25 24 23 22 21 20 19 20 22 23 24 25 24 23 22 20 18 16 17 17 17 16 16 16 16 15 15 14 13 12 10 10 9 9 9 9 8 5 6 10 13 12 13 13 12 11 10 9 8 9 8 9 10 9 8 7 9 12 11 13
25 24 22 21 20 20 21 23 24 26 28 29 30 30 30 30 30 29 27 26 25 25 25 26 26 27 27 26 25 26 25 24 23 21 20 21 21 22 24 26 26 24 23 21 19 18 18 18 17 17 17 18 17 16 16 15 13 12 11 10 9 8 9 10 9 5 5 10 13 13 13 12 12 11 10 9 9 9 8 8 9 9 10 9 7 10 11 11
27 26 24 23 22 21 21 22 24 26 27 29 31 32 32 32 32 31 30 28 26 26 25 26 26 26 27 26 26 26 26 25 24 23 22 22 21 22 24 26 27 26 24 22 21 20 20 19 18 18 19 20 19 17 17 16 15 13 12 11 10 9 9 9 8 5 6 11 12 13 13 13 13 11 9 10 10 10 9 8 8 9 11 11 8 9 11 11
28 27 26 25 24 23 22 23 24 26 27 29 31 32 33 33 34 33 32 30 28 27 26 25 25 26 26 27 26 26 26 25 25 25 24 23 22 22 23 26 27 27 26 25 24 23 22 21 21 21 22 23 21 20 19 18 17 15 13 11 11 10 9 9 8 6 7 10 12 13 13 13 13 11 9 10 10 10 10 9 8 9 10 12 10 9 10 11
30 28 26 26 25 25 24 24 25 26 27 29 31 32 34 34 35 34 33 32 30 29 27 26 25 25 26 27 26 25 25 25 26 25 25 25 24 22 23 25 27 28 28 26 26 25 24 23 22 23 24 25 24 22 21 20 19 17 14 12 12 11 10 8 7 7 8 9 11 13 14 14 13 12 11 10 10 10 10 10 9 9 9 11 10 9 9 9
30 29 27 27 27 26 25 25 26 27 27 29 30 32 33 35 35 35 34 33 33 31 29 27 26 25 26 26 26 25 24 24 25 25 26 26 25 24 24 25 26 28 29 28 28 27 26 26 25 26 27 28 25 24 23 21 20 19 16 14 13 12 11 10 8 8 8 9 11 13 15 14 12 12 12 11 11 10 10 11 10 9 9 9 10 10 9 7
30 29 28 28 28 28 26 26 26 27 28 29 30 31 33 34 34 34 34 34 34 33 31 29 28 27 26 26 26 25 24 24 24 25 26 27 26 26 25 25 26 28 30 30 31 30 29 28 28 28 29 28 26 25 24 22 21 20 18 17 15 13 12 12 11 9 8 8 11 14 16 15 13 12 12 11 11 11 11 11 10 10 9 9 9 11 10 8
30 29 29 30 30 30 28 27 27 27 28 30 30 31 31 32 33 33 34 34 34 34 33 31 29 28 27 27 26 25 25 24 24 25 26 27 28 28 27 27 26 28 31 33 33 33 31 28 27 27 27 26 25 25 24 23 23 21 21 19 17 16 13 12 11 9 8 8 10 12 15 16 15 14 14 13 12 12 12 12 11 10 9 10 10 10 10 9
32 31 31 32 32 31 29 28 28 28 29 31 31 30 30 30 31 32 33 34 34 34 34 32 30 30 29 28 27 26 26 24 23 24 25 26 28 29 29 28 27 27 30 33 34 33 31 28 27 26 25 24 23 23 23 23 24 23 22 21 19 17 14 13 12 10 9 9 9 12 16 18 18 17 16 15 14 12 12 12 12 10 9 10 10 10 10 9
34 33 33 33 33 31 30 29 29 29 30 32 32 32 30 29 29 31 32 33 34 34 34 33 32 31 31 30 28 27 26 24 23 23 25 26 27 29 30 30 29 28 29 31 33 33 31 29 27 27 26 23 21 21 22 23 24 23 22 22 21 19 17 16 15 13 12 11 11 13 18 21 19 18 18 18 16 14 12 12 12 12 10 9 10 10 10 9
36 34 33 32 32 31 30 29 29 30 31 33 33 33 32 30 29 29 32 33 33 33 33 33 32 31 31 31 30 28 27 26 24 24 24 25 26 28 30 31 31 30 30 30 32 33 32 30 29 28 26 22 20 21 21 22 23 23 23 23 22 21 20 18 17 17 15 15 14 15 18 20 19 17 17 18 17 16 14 12 12 13 11 9 10 10 10 9
36 34 32 30 29 29 29 29 30 31 32 34 34 34 33 31 30 29 31 33 33 33 33 33 33 32 32 32 31 29 28 27 25 25 25 25 25 26 28 30 32 32 30 29 30 33 34 33 32 30 26 22 21 20 20 21 22 24 25 25 24 23 22 20 18 18 18 17 16 17 18 19 19 17 16 16 16 17 16 14 12 13 13 11 9 10 10 9
36 34 31 29 27 27 28 29 30 33 34 35 35 35 34 31 30 30 31 32 32 32 32 32 32 32 32 32 31 31 29 28 27 26 26 25 24 25 26 29 31 32 31 30 30 32 34 35 34 32 28 25 22 20 20 21 22 24 26 26 25 24 24 21 18 19 19 18 18 19 18 18 18 18 16 15 15 15 16 16 15 14 14 13 10 9 10 9
36 34 31 28 26 26 27 28 31 34 35 36 35 35 34 32 30 30 30 32 32 31 32 32 32 33 33 32 32 31 30 30 29 27 26 25 25 25 25 26 29 31 31 31 30 31 33 35 35 33 31 28 25 22 21 21 21 23 25 27 27 26 25 22 20 19 20 20 20 20 20 19 19 19 19 17 16 16 16 16 16 15 15 15 12 10 9 9
36 34 30 27 25 25 26 28 31 34 35 36 35 34 33 32 30 29 30 32 31 31 31 32 32 32 32 32 32 31 31 30 30 29 27 26 26 26 25 25 27 29 30 31 30 30 31 33 34 33 32 30 28 26 24 23 23 23 24 26 27 27 26 24 22 21 21 21 21 21 22 23 22 22 21 20 19 18 18 18 18 17 16 15 14 12 10 9
36 33 30 27 25 24 26 28 30 32 34 34 33 32 31 30 29 29 30 31 31 30 29 30 31 32 32 32 32 32 32 31 31 30 29 28 27 27 26 26 26 27 29 30 30 30 30 31 31 31 32 32 31 31 29 27 24 23 24 26 27 28 27 26 25 23 22 22 22 23 24 24 24 23 22 21 20 20 20 20 20 18 17 16 16 14 12 10
36 33 30 28 25 25 26 27 29 30 31 30 29 28 27 27 27 27 29 30 30 29 29 30 31 31 31 31 31 32 32 32 31 30 30 29 28 28 28 27 26 26 27 30 31 31 31 30 30 31 33 34 35 34 33 30 27 25 24 25 28 29 29 28 27 25 23 24 25 25 25 24 24 23 21 20 20 20 19 19 19 18 16 17 18 16 14 11
35 33 31 28 25 25 26 26 27 27 27 26 24 23 24 25 25 26 27 27 28 28 28 29 30 31 31 31 31 31 31 32 32 31 30 30 29 29 28 28 28 26 26 28 30 31 31 30 31 33 34 35 36 36 35 34 31 28 26 26 29 31 31 31 29 26 25 26 26 25 25 25 24 23 21 20 19 19 18 18 18 17 16 17 18 17 17 15
34 33 32 28 25 25 25 25 25 24 23 22 21 20 21 22 23 25 26 25 25 26 27 29 29 30 30 31 31 31 31 32 33 32 31 31 30 30 29 29 29 28 27 27 28 28 30 31 32 33 34 35 36 37 37 37 35 32 29 28 29 31 32 32 30 29 27 27 27 26 25 25 23 23 22 22 20 18 17 16 16 16 15 15 15 16 16 17
34 32 31 28 25 25 25 24 23 21 19 18 18 18 19 20 21 22 23 24 23 24 26 28 28 29 30 30 30 31 31 32 33 33 33 32 31 31 30 30 30 29 28 28 28 28 30 32 34 34 34 35 36 37 38 38 38 35 32 30 29 31 33 33 32 31 30 29 29 27 26 25 23 23 23 23 21 18 15 13 14 15 15 14 13 13 13 14
33 31 29 27 25 24 24 23 21 19 17 16 17 17 18 19 19 20 21 22 23 23 25 26 26 27 28 28 29 30 31 32 32 33 34 33 32 32 32 31 30 30 30 30 29 30 31 33 35 35 35 35 36 37 38 38 38 38 35 32 30 31 33 33 33 33 32 32 32 30 27 26 25 24 23 22 20 18 16 14 15 15 15 16 16 15 15 13
33 31 28 26 24 23 22 20 18 16 15 15 15 16 17 18 18 18 19 20 21 23 24 24 25 26 26 27 29 30 30 31 32 33 33 33 33 33 32 32 31 30 30 31 31 31 31 32 33 34 36 36 36 37 37 37 37 37 36 33 32 32 33 34 34 33 34 35 34 33 30 28 26 25 23 22 20 18 16 16 16 16 16 18 19 17 17 16
33 30 28 26 23 21 19 16 15 13 12 13 14 15 16 17 17 17 18 19 20 22 24 24 25 26 27 27 28 29 30 30 31 32 32 32 33 33 33 33 32 31 30 31 32 32 32 32 33 34 35 36 36 35 35 35 35 34 34 35 35 34 34 35 35 34 35 35 34 33 31 29 27 26 24 22 20 18 18 18 18 16 17 19 20 19 18 18
34 31 28 26 22 18 15 13 11 10 10 10 12 13 14 15 16 17 18 19 20 22 24 25 26 26 27 28 28 30 30 29 30 31 32 32 32 33 33 33 33 33 32 31 32 33 33 34 34 34 33 33 34 34 34 34 33 32 34 37 38 38 37 37 37 35 34 34 33 32 30 29 29 28 26 24 23 22 23 23 22 20 19 20 21 21 19 18
33 31 28 24 19 13 11 9 8 7 7 7 9 11 13 14 15 16 17 19 19 21 24 26 26 27 28 28 29 29 29 29 30 30 30 31 31 32 33 33 33 34 34 34 34 33 34 35 35 33 32 31 31 32 34 33 32 34 36 38 38 39 40 40 39 37 36 34 32 30 28 28 30 30 27 26 26 26 27 26 25 24 23 22 23 22 21 19
32 30 27 21 15 10 8 6 5 4 4 4 5 9 11 12 14 15 16 18 20 22 24 26 27 28 28 27 28 28 28 28 29 29 29 30 30 31 32 32 33 33 34 36 36 34 34 34 33 32 32 31 30 32 33 32 33 35 37 37 37 38 39 40 40 39 38 36 32 30 28 26 29 31 28 28 28 28 28 27 26 26 25 25 26 26 25 23
31 29 25 18 12 9 8 6 3 2 3 2 2 6 9 11 12 13 15 18 20 21 24 25 26 27 27 27 27 27 28 28 29 29 30 30 29 30 30 32 33 33 34 36 36 35 35 35 33 31 31 31 31 32 32 31 33 36 36 36 36 36 37 39 40 41 41 38 33 31 28 26 29 30 29 29 29 28 29 28 28 27 26 27 28 28 27 26
30 27 23 16 11 10 8 6 3 1 1 1 1 4 8 9 11 12 14 17 20 21 22 24 26 26 27 27 27 27 28 28 28 29 29 29 29 29 29 30 31 32 33 35 35 35 35 35 34 33 32 31 32 33 32 31 33 36 36 36 37 36 37 38 40 41 41 38 34 33 31 29 30 30 29 29 28 28 28 29 28 27 27 26 27 27 27 26
29 27 22 16 12 10 8 6 4 1 0 1 2 3 6 8 9 11 12 15 19 20 20 22 24 25 25 26 27 27 27 27 27 28 28 28 28 28 28 28 29 31 33 33 34 35 36 36 35 35 34 33 33 33 32 32 33 34 35 36 37 37 38 39 39 40 39 36 35 35 34 34 33 31 30 29 27 26 27 28 28 27 26 26 26 26 26 26
28 26 22 16 12 11 9 7 5 3 2 2 3 4 7 7 7 9 11 13 16 18 19 20 22 23 23 23 24 25 25 25 26 26 26 27 27 28 28 28 28 29 31 32 33 34 35 36 36 36 35 35 35 34 33 33 34 34 34 35 36 37 37 38 37 37 35 33 33 35 36 36 35 33 31 30 28 26 27 28 27 27 27 27 28 28 27 26
26 25 21 17 14 11 9 7 6 5 3 3 5 6 7 8 7 9 11 13 15 17 17 18 19 20 19 20 21 22 23 24 24 25 25 25 26 27 28 28 27 28 30 32 32 32 33 35 36 36 36 36 36 36 35 34 35 36 35 35 35 36 37 37 36 35 33 31 32 35 37 38 36 33 33 32 30 29 29 28 27 27 29 30 30 29 28 26
24 23 21 17 14 12 9 8 7 6 4 3 5 8 8 8 8 9 11 13 15 16 16 16 17 17 17 18 19 20 20 21 22 23 23 24 25 26 27 27 27 28 29 31 32 32 32 33 35 36 36 36 37 37 36 37 37 37 37 36 36 36 36 37 37 36 34 32 33 36 37 38 37 35 35 36 34 31 31 30 28 28 30 31 31 29 28 26
21 21 20 18 15 12 9 7 6 5 4 3 5 9 10 8 7 8 10 13 15 16 15 15 16 16 16 17 17 18 19 19 20 20 21 22 23 24 26 26 27 27 28 29 30 31 31 32 33 35 36 37 37 37 38 39 39 38 39 38 37 37 37 38 38 37 36 35 35 37 38 38 38 37 36 36 35 33 32 32 30 30 31 31 30 29 28 26
20 19 19 18 16 13 10 8 6 4 5 5 6 9 10 9 7 6 8 11 12 14 14 14 14 14 15 15 15 16 17 18 18 19 19 20 21 23 24 25 25 26 27 28 29 29 30 31 32 33 35 36 36 37 38 40 40 40 40 39 39 39 39 39 39 39 39 38 38 38 38 39 39 38 35 35 36 34 33 33 32 31 31 30 29 29 27 26
21 18 18 18 17 15 14 11 8 4 5 6 6 8 9 9 7 6 6 8 10 10 12 12 12 13 13 14 14 15 16 17 17 18 18 19 20 21 22 23 24 24 25 27 27 28 29 30 31 32 33 34 35 36 38 39 40 40 41 41 41 41 40 40 40 39 39 39 39 39 39 40 40 38 36 35 36 36 35 33 32 33 32 30 29 28 26 24
23 19 17 17 17 17 16 15 12 8 4 4 5 6 7 8 9 8 7 8 9 9 10 11 11 12 13 13 14 15 16 16 17 17 18 18 19 20 21 22 23 23 24 24 25 26 27 28 30 31 32 32 34 35 37 38 39 40 41 42 42 42 41 41 41 41 40 40 40 40 40 41 40 38 37 36 36 36 37 35 34 34 33 31 29 27 24 23
24 20 16 15 15 15 15 15 15 13 8 4 3 3 5 7 8 9 9 10 10 10 10 11 11 12 13 14 14 15 16 16 17 17 17 17 18 19 20 21 22 23 24 24 25 26 26 27 28 29 30 32 33 34 35 37 38 39 40 42 42 43 43 42 42 42 42 41 41 41 41 41 40 38 38 37 36 36 36 37 36 35 35 32 29 26 24 23
24 21 18 15 13 13 14 15 15 14 11 8 5 3 2 4 5 6 7 8 9 10 11 12 13 13 14 14 15 15 16 17 18 18 18 17 18 18 19 21 22 23 24 25 26 27 27 27 28 29 30 31 32 33 34 35 37 38 39 41 42 43 43 44 43 43 42 43 43 42 42 42 41 39 39 38 37 36 35 37 37 36 36 35 30 27 25 24
23 22 19 15 12 12 13 13 13 12 12 10 7 5 4 2 2 2 3 4 6 7 9 11 12 13 14 14 15 15 16 17 18 19 19 20 19 19 20 21 22 23 24 26 27 28 29 29 29 30 31 31 32 33 34 34 35 36 38 39 40 42 43 44 44 44 43 44 44 43 44 44 42 41 41 40 38 37 35 36 38 38 39 38 33 29 27 26
22 21 19 18 15 13 12 11 11 11 10 9 8 7 5 3 2 0 1 2 4 5 7 9 10 11 12 13 14 15 15 16 17 17 19 21 21 22 22 22 23 24 25 27 28 29 30 31 31 31 32 33 33 34 34 34 35 36 37 38 39 41 42 43 44 44 45 45 44 44 45 46 44 42 42 41 40 39 37 37 39 40 41 40 37 33 30 28
19 19 19 19 17 14 12 11 10 9 7 6 6 6 5 4 3 2 1 0 1 2 4 6 7 8 10 11 13 15 16 16 16 16 18 20 22 23 24 25 25 26 26 28 28 30 31 32 32 33 33 34 34 35 35 35 35 35 36 37 38 40 41 43 44 45 46 46 45 45 46 47 45 44 44 43 42 41 39 38 38 41 43 43 40 37 34 31
17 18 18 18 18 16 13 11 9 8 7 5 4 4 3 3 3 2 1 1 1 1 2 3 4 5 6 7 9 11 13 14 15 16 18 20 22 23 24 25 25 26 26 27 27 28 29 31 32 33 34 34 35 35 35 35 35 35 36 36 38 39 40 42 44 45 46 47 46 47 48 47 46 46 46 45 44 43 42 40 39 40 44 46 45 42 39 36
15 15 15 16 16 16 15 13 11 9 8 6 5 4 2 2 2 2 2 2 3 3 4 4 4 4 4 5 6 7 8 10 11 13 15 17 20 22 23 24 24 25 25 25 26 27 28 29 30 31 32 33 34 34 34 35 36 36 36 36 37 38 40 42 43 45 46 47 47 48 49 48 46 47 47 47 47 46 44 43 42 40 42 45 47 47 44 41
13 13 13 14 14 14 14 13 13 11 10 8 7 5 4 2 1 2 3 4 5 5 6 6 6 6 6 6 6 6 7 8 9 10 11 13 16 19 21 22 23 24 24 25 25 26 27 28 29 30 31 31 32 32 33 34 34 35 36 37 38 38 39 41 43 44 46 47 47 48 50 49 47 46 48 48 48 48 47 46 45 43 42 43 45 47 46 45
12 11 11 12 12 12 12 12 12 12 12 11 10 9 8 6 4 2 2 3 5 6 7 8 8 8 9 9 9 9 9 9 10 10 11 12 13 15 17 19 20 21 22 23 24 25 26 26 27 29 30 31 32 33 33 33 33 34 35 36 37 38 39 40 42 44 45 46 47 48 49 50 48 47 48 48 48 49 49 48 47 46 44 44 44 45 46 46
11 10 10 10 10 10 10 10 10 10 11 11 11 11 10 10 9 8 6 4 2 3 5 7 8 9 10 11 11 11 11 11 12 12 12 13 13 14 15 16 18 19 20 21 22 23 24 25 25 26 28 30 32 33 33 34 34 34 34 35 36 37 38 39 41 42 44 46 47 48 49 51 50 48 48 48 48 49 49 49 49 48 47 46 45 45 46 46
10 10 10 9 10 9 9 8 8 8 9 9 9 9 9 9 10 10 9 8 7 6 3 1 3 6 8 10 11 12 13 13 14 14 14 15 15 15 16 16 17 19 20 21 21 22 23 24 24 25 26 28 29 31 32 34 34 35 35 35 35 36 37 38 39 41 43 44 46 48 50 51 51 50 50 50 50 50 50 50 50 50 49 47 47 46 47 47
9 9 9 8 8 8 8 8 7 7 7 7 8 8 7 8 8 8 9 9 8 8 7 7 5 3 1 4 7 9 11 13 15 16 17 18 18 18 18 18 19 19 20 21 21 22 23 24 25 26 26 27 28 30 31 32 33 34 35 35 35 36 37 38 38 39 40 43 45 47 49 50 51 51 51 51 51 51 51 50 51 51 51 49 48 48 48 48
Wind_Direction
297 292 287 284 282 280 278 276 275 274 273 273 274 274 273 272 271 268 264 260 257 253 248 246 245 242 239 236 233 229 227 224 222 222 220 217 219 222 223 218 208 203 207 209 208 205 202 201 202 202 199 194 185 177 174 170 164 149 141 127 105 89 87 102 129 147 148 149 150 148 150 145 139 132 126 123 118 109 99 97 97 96 102 103 105 119 118 115
304 298 292 286 283 280 277 275 273 271 271 270 270 270 271 270 269 268 266 262 258 255 252 248 245 242 239 236 233 230 228 226 223 221 219 217 217 219 221 218 211 207 206 206 207 207 205 202 201 203 201 199 191 179 176 179 174 158 153 143 119 104 90 96 120 135 142 153 156 151 148 144 140 139 129 120 113 106 100 95 88 87 100 109 111 118 119 115
311 305 299 292 287 282 279 276 273 270 268 267 267 267 267 267 267 267 265 263 260 256 253 250 247 243 239 237 234 230 228 227 225 222 219 216 215 216 217 217 213 211 210 208 209 211 210 208 205 204 202 201 195 184 178 183 181 172 164 153 133 119 105 100 117 139 147 156 162 156 149 146 145 146 136 122 114 111 109 99 85 76 89 112 118 120 124 119
316 311 305 299 293 288 283 280 276 272 268 266 265 264 263 263 263 264 264 262 260 257 253 251 249 246 241 237 234 231 228 227 226 223 219 216 215 214 214 215 213 213 214 212 213 214 216 216 212 209 207 204 199 189 183 186 184 178 173 160 146 131 120 111 116 146 160 162 166 162 154 152 150 143 130 117 105 103 107 105 96 82 81 107 123 124 127 125
318 313 308 303 296 291 287 283 279 275 271 267 264 262 261 260 260 260 261 261 259 256 254 251 249 248 244 239 235 232 229 227 225 222 219 217 215 213 212 213 213 213 213 212 211 213 217 219 216 212 211 210 205 194 188 189 183 177 176 168 158 145 129 118 120 147 179 171 165 162 159 155 147 135 124 115 103 96 100 107 107 100 87 93 124 126 128 130
318 314 310 305 298 292 287 283 279 276 272 268 265 262 260 259 257 256 257 258 257 255 253 250 248 248 246 242 236 232 229 226 225 223 219 218 215 212 211 212 212 211 211 208 207 209 212 216 215 211 210 211 208 200 193 188 182 178 176 172 168 158 136 118 113 132 180 171 161 161 161 153 143 136 130 121 111 105 103 107 109 109 96 88 113 126 126 130
317 314 311 307 301 295 289 283 279 276 272 269 266 263 260 258 256 254 253 253 254 254 251 249 247 246 246 244 238 233 230 227 225 223 219 218 216 211 210 211 211 209 208 204 203 206 209 211 209 207 209 210 206 201 196 188 182 180 178 176 173 164 144 119 105 112 162 165 160 162 160 152 147 143 135 127 121 115 109 110 113 112 102 95 109 124 124 127
316 314 311 308 304 299 292 285 280 276 272 268 266 263 261 258 256 253 251 250 250 251 250 247 245 243 244 244 240 235 230 226 225 223 219 218 216 212 210 210 210 208 207 203 201 204 205 206 204 203 207 209 204 198 197 192 186 183 181 179 173 166 153 129 108 119 160 169 164 163 160 155 153 145 135 131 128 121 114 112 113 112 108 106 114 123 128 133
316 314 311 308 304 300 294 288 282 277 272 268 265 263 261 259 256 253 251 249 247 247 247 245 243 240 240 241 240 236 230 226 224 222 219 218 216 212 211 211 209 207 206 202 202 204 205 205 203 202 206 209 203 198 196 193 189 185 181 182 175 166 160 145 123 134 164 181 179 169 162 159 158 153 145 138 132 127 120 116 113 111 112 113 117 122 128 139
316 315 312 309 305 301 295 289 284 278 272 268 265 263 261 259 257 254 251 248 246 245 243 242 241 238 237 238 239 236 230 226 223 221 218 217 215 212 211 211 208 207 205 202 201 204 206 206 204 203 207 208 202 199 197 192 190 186 184 187 179 170 170 164 147 143 155 180 189 174 162 162 164 161 154 144 140 134 124 119 117 116 116 117 121 122 125 140
317 315 313 310 306 302 296 290 284 278 271 267 265 263 261 259 257 254 251 248 246 244 241 239 238 236 234 234 235 235 231 225 222 221 218 215 213 211 212 211 208 206 204 202 201 203 206 208 208 207 210 210 203 200 197 193 191 187 186 188 182 182 183 172 158 154 155 168 179 169 162 167 168 164 157 148 144 137 126 121 119 119 120 120 123 123 126 142
318 317 314 310 306 302 295 289 283 277 270 265 263 262 261 259 256 253 250 248 245 243 241 238 235 234 233 231 231 232 230 225 221 220 217 214 212 210 211 212 209 207 204 203 202 205 208 209 210 211 213 212 208 204 199 196 193 187 186 187 185 188 184 169 161 164 173 176 183 178 170 169 168 166 162 155 147 140 132 125 122 122 123 123 123 122 125 141
319 317 314 309 305 300 294 287 280 274 269 264 261 260 259 258 256 251 248 246 244 242 240 237 234 232 232 229 227 228 229 225 220 220 218 215 211 209 210 210 209 208 207 206 205 207 208 208 209 212 215 214 211 209 204 200 197 189 186 188 188 188 181 173 168 169 182 189 201 196 178 170 169 169 165 158 152 146 139 131 127 126 125 124 123 122 124 138
319 317 313 308 303 298 292 285 278 272 267 263 259 257 257 257 255 250 245 243 242 240 238 236 233 231 230 229 225 224 226 225 220 218 218 216 212 209 209 209 208 208 207 207 208 210 210 209 209 211 214 213 210 210 207 203 200 193 189 189 190 187 183 181 174 174 183 186 195 193 177 170 171 171 165 159 155 151 143 136 132 129 127 126 125 123 124 135
319 317 313 307 302 297 291 284 276 270 267 262 258 256 255 254 254 250 244 240 239 238 236 234 232 229 228 228 225 222 222 223 220 217 217 216 213 210 209 208 207 208 207 205 206 208 210 211 211 212 212 209 207 208 208 205 202 196 192 191 191 187 185 185 181 181 184 184 186 185 176 172 173 175 170 164 160 154 148 142 137 133 131 130 128 125 127 137
319 318 314 308 302 296 290 284 275 269 266 263 258 255 253 252 252 249 242 237 236 235 233 231 229 227 226 226 224 221 219 219 219 218 217 215 214 212 211 210 208 208 208 205 204 205 207 210 213 215 212 208 207 206 207 207 203 198 195 193 191 188 187 188 187 186 190 191 190 189 184 179 179 179 178 174 169 162 154 149 144 138 135 135 133 129 130 142
321 321 317 311 303 295 289 283 275 269 266 263 258 254 251 250 249 247 240 235 233 232 231 228 226 225 224 223 222 220 217 215 216 217 217 215 213 212 211 211 209 209 208 206 204 205 206 207 211 214 213 211 208 206 207 207 204 201 197 195 192 190 189 189 188 189 194 196 197 198 196 193 189 187 185 185 182 173 164 157 151 145 141 140 139 136 135 144
324 324 320 313 305 297 288 282 274 269 266 263 259 254 250 248 247 244 238 232 231 230 229 227 224 222 223 222 221 219 216 214 213 214 216 215 213 212 211 211 210 209 208 207 205 205 206 207 208 210 212 212 209 207 208 206 205 204 200 197 195 192 191 189 187 190 196 198 198 200 202 202 200 195 190 190 190 183 174 166 158 151 147 146 146 147 144 145
327 325 322 316 309 299 289 281 274 270 267 265 261 256 251 247 245 241 235 230 229 228 227 226 223 221 221 220 219 218 216 214 212 211 212 212 212 212 212 210 210 209 208 207 206 206 207 207 208 208 209 211 210 209 209 206 206 205 201 198 197 194 192 190 188 191 198 202 201 199 200 201 201 200 197 196 196 191 182 174 167 158 151 151 152 153 153 151
328 326 323 319 312 302 290 281 277 273 270 268 264 259 253 248 244 239 233 229 228 227 225 223 222 220 219 218 217 216 215 213 211 210 209 209 209 209 210 210 209 207 206 206 205 206 206 206 207 207 207 209 209 210 210 208 207 205 201 197 197 196 193 193 192 192 198 203 203 201 200 200 200 202 201 199 198 197 191 185 179 168 160 159 159 160 162 156
328 328 325 321 315 302 291 284 281 278 274 271 268 262 255 248 242 236 231 229 228 226 224 221 219 218 217 215 215 214 213 213 211 209 208 208 207 208 209 210 209 207 205 204 203 204 204 204 204 205 206 207 207 209 210 209 207 206 201 196 196 196 195 196 195 193 197 202 204 203 201 201 202 202 202 202 202 202 202 199 192 182 175 170 165 164 162 154
330 329 326 323 315 302 293 289 286 283 278 273 268 261 253 245 240 234 228 227 227 225 222 219 217 216 215 213 213 213 212 211 211 209 207 206 205 206 207 208 209 206 203 204 204 204 203 202 202 204 206 206 206 207 209 209 208 206 201 196 195 195 196 199 197 194 197 202 205 205 204 203 204 204 205 207 207 207 210 213 210 200 191 184 174 166 160 156
332 330 326 323 314 303 297 294 292 288 281 273 264 254 246 241 237 232 226 222 223 222 221 218 215 214 213 212 211 211 211 210 209 209 207 204 203 203 205 207 208 206 202 201 202 204 204 202 203 204 205 206 205 206 207 208 208 207 203 198 195 195 198 200 198 196 197 202 205 205 205 205 205 205 207 210 211 212 213 218 224 220 212 203 185 171 168 168
335 331 326 322 313 304 300 298 296 292 283 270 257 246 239 235 233 229 224 219 217 217 219 218 214 211 211 211 210 210 210 209 208 208 207 205 203 201 202 204 206 205 202 199 198 200 202 203 205 204 204 205 205 206 207 208 208 207 205 200 196 196 199 200 200 199 198 201 205 206 205 206 206 206 209 213 216 218 218 219 227 231 233 224 194 174 179 183
337 333 327 321 313 306 302 300 299 294 282 266 251 241 233 229 227 225 221 217 214 213 215 215 212 210 208 208 208 208 209 209 208 207 207 206 204 202 201 202 203 204 202 200 198 199 200 203 205 205 205 205 205 206 208 208 208 208 206 203 199 199 201 202 202 201 200 202 206 206 204 206 208 209 212 216 218 222 225 225 229 234 237 232 212 191 185 187
340 335 330 323 315 308 304 302 300 294 280 261 246 236 229 222 219 218 215 212 210 211 211 210 209 208 206 205 205 206 207 209 208 207 207 207 206 204 202 202 202 203 203 201 201 201 202 204 205 206 206 206 206 207 208 208 209 209 208 206 205 204 204 205 205 204 203 206 207 206 204 205 209 211 214 218 219 222 228 231 235 236 231 228 222 208 192 186
344 339 334 327 319 312 307 305 302 292 275 256 242 231 225 217 212 211 210 208 207 207 208 207 206 206 205 203 202 202 203 206 206 206 206 205 205 205 204 203 201 201 202 202 203 202 204 205 206 206 207 208 207 208 209 209 209 209 209 210 211 210 209 210 210 208 208 210 209 208 207 205 207 211 213 217 219 219 222 226 227 225 221 221 219 210 199 194
347 343 338 332 324 318 312 308 303 292 275 256 238 225 217 212 208 206 206 204 203 204 203 203 205 205 205 203 201 200 201 202 204 205 205 205 205 204 204 204 203 201 200 202 204 203 204 207 207 207 207 208 208 209 210 210 209 208 208 211 213 213 213 213 214 212 212 212 210 209 209 205 205 209 211 214 215 214 215 217 214 208 206 209 210 205 197 195
349 346 342 336 331 327 321 314 304 296 285 260 235 218 210 207 203 203 204 201 199 201 201 202 203 204 205 204 203 202 200 201 204 204 205 206 206 205 204 204 204 204 201 202 204 203 203 208 209 208 207 207 207 209 210 209 209 209 209 211 213 215 216 216 217 216 216 214 210 209 209 204 205 209 211 212 213 212 214 216 213 209 205 201 199 198 194 190
351 350 347 342 342 341 332 322 307 302 306 278 231 211 204 201 199 199 201 199 196 198 200 201 202 203 204 204 204 203 201 201 203 203 205 206 206 206 206 205 205 206 205 204 205 204 204 208 210 209 208 207 207 208 209 208 209 211 211 211 213 216 217 219 220 220 220 217 211 210 209 203 204 209 211 212 212 212 213 214 213 213 213 208 199 194 191 186
355 355 352 351 356 357 350 343 319 295 315 315 218 203 201 199 196 195 195 195 196 198 199 200 201 203 205 205 205 204 203 201 201 202 205 206 207 207 206 205 204 205 207 207 207 206 206 208 209 208 208 207 208 209 208 206 209 213 213 213 214 216 218 220 221 222 223 219 213 212 210 204 205 207 209 211 211 211 213 212 211 211 213 215 212 206 198 189
0 1 359 0 7 9 4 358 346 294 297 342 159 189 194 194 194 194 195 195 196 198 198 198 200 203 206 206 205 204 204 203 202 202 204 206 208 209 208 207 205 206 208 209 208 207 207 209 209 209 208 207 208 210 208 206 209 213 214 215 215 216 217 220 221 222 224 221 216 215 213 210 207 205 207 211 211 211 211 211 212 213 214 217 219 218 213 207
4 6 5 4 10 14 12 10 9 356 328 115 129 165 178 184 190 193 197 199 198 197 197 198 199 201 204 206 206 204 204 204 204 203 204 205 207 209 209 208 207 207 209 210 210 209 208 209 210 210 210 209 210 210 208 207 209 213 214 216 217 218 219 221 222 223 224 221 218 218 217 215 211 206 206 210 209 208 209 211 213 215 217 217 214 213 214 214
7 9 7 6 10 15 17 21 27 32 63 111 125 147 164 172 181 188 193 198 199 198 198 199 200 201 203 205 206 205 205 205 205 205 204 204 206 208 209 208 207 208 210 210 210 210 210 210 211 211 212 211 212 212 210 208 210 213 215 216 219 220 221 224 226 227 227 223 221 221 220 220 216 208 206 210 209 205 206 209 213 214 214 212 209 208 208 209
9 10 8 8 10 13 18 28 34 39 58 98 123 137 154 163 170 181 187 192 198 199 198 199 200 201 201 203 205 206 207 207 207 208 207 205 205 207 208 208 207 208 211 211 211 210 210 211 211 212 214 214 214 214 212 211 211 213 214 216 218 220 222 224 226 228 228 224 223 224 223 224 221 213 207 210 210 207 206 210 213 213 210 207 207 208 207 207
10 10 11 13 11 8 13 27 35 40 46 64 115 133 145 156 166 178 184 188 194 198 198 199 200 200 198 199 202 204 207 209 209 210 210 209 208 208 208 208 207 208 211 213 213 212 211 211 211 212 214 214 215 215 214 213 212 213 214 215 217 220 222 223 224 225 225 223 222 224 225 226 225 218 210 209 210 209 209 211 212 211 208 206 207 207 206 205
11 10 13 17 16 10 11 20 33 51 63 65 112 134 138 145 159 176 183 188 192 195 198 201 202 203 202 201 201 204 206 209 211 211 211 211 211 212 211 209 207 207 210 213 214 214 213 212 212 212 213 214 214 215 215 214 213 213 214 215 216 218 221 222 223 224 223 222 222 223 225 226 226 223 215 211 210 209 208 209 210 210 208 207 207 207 206 205
14 10 13 18 20 20 22 23 27 61 93 96 115 134 136 137 151 171 182 188 192 195 198 201 204 207 208 207 207 208 210 212 214 214 214 213 213 214 214 212 209 207 208 211 214 214 214 215 214 213 214 214 214 214 215 215 214 213 214 214 215 217 220 221 223 224 224 223 223 224 225 227 227 225 221 215 211 207 205 207 208 209 210 209 208 207 207 206
17 12 14 20 22 25 32 33 29 52 110 122 124 135 140 139 147 162 177 188 193 195 198 203 206 208 210 211 210 211 213 216 219 220 220 219 218 218 218 217 214 210 208 210 212 213 214 216 216 215 215 215 214 214 215 216 215 214 214 214 215 216 218 220 223 225 226 226 226 225 226 228 228 227 224 220 214 208 205 207 208 209 210 210 208 208 207 205
19 17 18 23 27 29 33 37 38 42 73 122 132 141 151 151 152 159 171 186 197 203 206 209 212 213 215 216 215 215 215 216 220 222 223 223 223 222 222 222 220 218 214 213 213 213 213 215 218 218 217 217 216 214 215 217 216 215 214 215 215 215 217 219 222 224 226 227 228 228 228 229 229 228 227 224 218 212 208 209 211 210 210 210 207 207 206 202
21 22 23 27 32 34 37 41 44 45 47 61 100 135 160 166 166 168 175 185 196 203 208 213 218 219 221 221 221 220 219 218 217 218 220 222 223 223 223 223 222 221 219 218 217 217 215 214 217 219 218 218 218 216 216 218 218 217 216 216 216 216 216 218 220 222 225 228 229 229 230 231 231 230 230 228 224 219 213 211 213 212 210 209 207 206 204 200
22 24 26 29 34 37 40 43 45 46 46 51 63 79 123 165 174 179 183 190 199 204 208 214 219 222 223 224 223 221 220 218 216 215 215 217 219 221 221 222 221 220 218 218 219 220 219 217 217 219 219 219 219 218 217 218 219 219 218 218 217 218 218 218 219 221 224 227 229 230 231 232 232 231 232 231 229 225 218 212 213 213 209 207 207 205 203 202
23 25 28 30 32 35 39 41 43 43 43 45 53 61 74 113 153 185 200 206 214 214 213 215 219 222 223 223 223 222 219 217 215 214 214 214 215 217 218 218 218 217 216 215 216 218 220 219 218 220 220 219 220 220 218 218 219 219 219 219 219 219 219 219 220 220 222 226 228 230 232 232 232 231 231 231 231 229 225 216 213 214 210 207 207 206 205 204
23 25 29 31 31 31 31 33 37 37 36 38 41 46 58 75 91 131 236 236 235 230 220 217 219 219 219 219 219 219 217 215 214 214 214 215 215 215 216 216 216 215 214 213 213 215 218 219 219 220 221 221 220 221 220 219 218 219 219 219 219 220 220 220 221 220 222 224 226 229 232 233 233 233 232 231 231 231 229 222 216 215 212 208 207 206 206 207
22 25 29 33 33 31 28 30 31 27 26 33 35 33 38 48 57 68 71 67 241 239 231 227 225 223 220 218 217 218 220 219 218 217 217 217 217 218 218 218 217 217 216 214 213 214 216 218 219 219 221 221 221 221 221 221 220 220 219 219 219 220 221 221 221 221 222 224 225 227 230 232 233 235 235 234 232 232 232 228 221 217 214 211 209 207 207 209
22 25 29 35 38 37 34 33 31 27 26 32 32 23 16 15 22 30 29 17 322 265 252 244 238 233 228 223 219 220 222 223 224 223 220 219 219 220 222 223 222 222 222 220 218 218 218 219 220 221 222 223 223 222 222 222 222 221 221 220 219 219 220 221 222 222 223 224 225 227 228 230 232 234 235 235 234 233 233 232 227 221 217 215 214 214 213 212
19 23 28 35 40 42 41 38 36 34 34 35 32 28 18 355 342 330 301 283 275 267 264 262 256 249 244 239 234 231 228 227 227 226 224 222 221 222 224 226 227 227 227 227 226 224 224 223 223 224 225 225 226 225 224 223 223 223 222 222 221 220 219 220 221 222 224 225 226 227 228 229 231 233 235 236 235 234 233 233 231 226 222 220 220 221 222 218
13 18 25 32 39 43 45 44 43 43 45 46 45 46 42 26 336 290 272 264 261 258 258 261 262 260 258 254 248 245 242 239 236 232 228 225 223 224 225 227 229 230 229 229 229 228 227 227 227 227 228 228 229 229 228 227 226 225 225 224 223 222 220 220 221 222 224 226 227 228 229 229 231 232 235 236 237 235 234 234 234 231 227 223 222 223 224 221
4 9 20 29 36 41 45 47 49 49 52 54 55 55 50 45 38 19 320 274 261 255 251 249 249 251 254 255 253 251 249 247 246 243 238 234 230 228 227 228 230 231 230 230 231 231 230 229 228 229 230 230 231 231 231 231 230 229 228 228 227 225 223 222 222 222 224 226 228 229 229 230 231 232 234 236 238 237 235 233 234 234 231 228 225 224 224 222
358 359 11 22 28 33 38 43 46 48 51 54 56 55 50 43 39 36 35 28 346 272 253 247 241 239 241 244 249 252 254 254 254 253 249 245 241 236 233 232 231 231 231 230 230 231 231 231 229 229 230 231 232 232 233 233 233 233 232 231 231 230 228 226 225 223 224 225 227 229 230 230 231 232 234 235 237 239 238 235 233 234 234 231 228 226 225 224
354 353 359 10 16 19 24 30 35 38 44 49 50 50 49 43 37 35 38 43 45 46 41 347 259 246 241 241 242 245 250 254 257 258 256 253 250 246 242 239 236 234 233 231 230 230 231 231 231 230 230 231 231 233 234 234 234 235 235 234 234 233 232 231 229 227 226 226 227 229 230 230 230 231 233 235 237 239 240 238 235 233 233 233 231 229 227 226
351 350 351 358 4 6 9 14 18 22 27 33 36 38 41 40 35 30 32 38 42 45 47 49 49 38 309 254 247 245 246 249 252 256 257 256 254 252 249 246 243 240 238 236 234 233 231 231 231 231 231 231 231 232 233 234 235 236 237 237 236 235 235 234 232 231 230 229 229 230 231 231 231 231 232 234 236 238 240 240 239 235 233 232 232 231 229 228